Simultaneous Nadir Overpasses (SNOs) Predictions

Prediction of SNOs between GOES-16 and NOAA-20 Satellite Orbit:

Table of predicted SNOs for the next 14.0 days since TLE Epoch: 1/10/2020
Index Date Time (GOES-16) GOES-16 Lat,Lon NOAA-20 Lat,Lon Distance(km) Time Diff (sec)
1 01/12/2020 06:44:45 0.05, -75.22 0.98, -79.48 484.47 80
2 01/13/2020 06:23:20 0.04, -75.23 0.00, -74.94 32.52 80
3 01/15/2020 18:29:14 -0.05, -75.26 -0.16, -75.72 52.78 80
4 01/16/2020 18:07:50 -0.04, -75.27 0.88, -71.20 464.86 80
5 01/18/2020 06:32:19 0.05, -75.29 0.32, -76.46 133.35 80
6 01/19/2020 06:10:55 0.05, -75.31 -0.72, -71.94 384.46 80
7 01/20/2020 18:35:33 -0.06, -75.34 -0.48, -77.24 216.94 80
8 01/21/2020 18:14:08 -0.06, -75.36 0.51, -72.71 301.33 80
9 01/23/2020 06:38:37 0.07, -75.39 0.64, -77.99 295.77 80
10 01/24/2020 06:17:13 0.07, -75.41 -0.34, -73.45 222.70 80




NCC Satellite Simultaneous Nadir Overpasses (SNOs) Prediction Service
